Location: The Rolnick Observatory
(41.1711°N, 73.3275°W)
Time: 05:32:41
(UTC-04:00)

Envisat - Pass Details

Date: 19 February 2019
Orbit: 764 x 766 km, 98.2° (Epoch: 21 March)

Event Time Altitude Azimuth Distance (km) Brightness Sun altitude
Rises 19:27:14 0° 196° (SSW) 3,219 6.4 -22.3°
Reaches altitude 10° 19:29:52 10° 208° (SSW) 2,297 5.7 -22.8°
Maximum altitude 19:34:07 27° 265° (W) 1,454 5.1 -23.6°
Drops below altitude 10° 19:38:23 10° 323° (NW) 2,311 6.0 -24.4°
Sets 19:41:03 0° 335° (NNW) 3,242 6.7 -24.9°
